Regional Weather Roundup
Issued by NWS

Home | Current Version | Previous Version | Graphics & Text | Print | Product List | Glossary On
Versions: 1 2 3 4 5 6 7 8 9 10 11 12 13 14 15 16 17 18 19 20 21 22 23 24 25 26 27 28 29 30 31 32 33 34 35 36 37 38 39 40 41 42 43 44 45 46 47 48 49 50
000
ASUS43 KMPX 281910
RWRMN
WEATHER ROUNDUP FOR MINNESOTA
NATIONAL WEATHER SERVICE TWIN CITIES/CHANHASSEN MN
200 PM CDT SAT MAR 28 2015


NOTE: "FAIR" INDICATES FEW OR NO CLOUDS BELOW 12,000 FEET WITH NO
SIGNIFICANT WEATHER AND/OR OBSTRUCTIONS TO VISIBILITY. N/A MEANS
CURRENT SKY AND/OR WEATHER CONDITIONS ARE NOT AVAILABLE.

MNZ060>063-068>070-282000-
   Twin Cities Metro

CITY           SKY/WX    TMP DP  RH WIND       PRES   REMARKS
TWIN CITIES    SUNNY     39  15  37 S15       30.20F
ST PAUL        SUNNY     41  15  35 S12G21    30.21F
CRYSTAL        SUNNY     42  15  33 S14G24    30.18F
BLAINE         MOSUNNY   43  14  31 SE15G21   30.18F
LAKEVILLE      FAIR      36  21  55 SE10      30.20F
EDEN PRAIRIE   SUNNY     40  17  39 S13G20    30.18F
SOUTH ST PAUL  SUNNY     39  15  36 SE10G20   30.20F
LAKE ELMO      FAIR      41  18  38 S15       30.21F
$$
MNZ001>005-007-008-013>017-022>024-027-028-282000-
   Northwest Minnesota

CITY           SKY/WX    TMP DP  RH WIND       PRES   REMARKS
BEMIDJI        SUNNY     43  20  41 S15G25    30.00F
HALLOCK        CLOUDY    45  30  57 S28G38    29.88F
ROSEAU         MOSUNNY   43  28  56 S26       29.92F
WARROAD        MOSUNNY   43  27  52 S14G26    29.94F
THIEF RVR FALL MOSUNNY   43  28  56 S22G28    29.95F
CROOKSTON      SUNNY     46  27  46 S26G36    29.95F
FOSSTON        MOSUNNY   43  23  45 S23G30    29.97F
DETROIT LAKES  MOSUNNY   41  27  56 S20G26    30.01F
MOORHEAD       SUNNY     45  25  45 S24G31    29.99F
PARK RAPIDS    MOSUNNY   45  21  38 S20G29    30.02F
MAHNOMEN       FAIR      42  25  51 S17G26    29.98F
$$
MNZ006-009>011-018-025>026-282000-
   North Central Minnesota

CITY           SKY/WX    TMP DP  RH WIND       PRES   REMARKS
BAUDETTE       MOSUNNY   41  19  41 S18G31    29.97F
FLAG ISLAND    PTSUNNY   34  25  69 S16       29.93F WCI  23
INTL FALLS     MOSUNNY   43   9  24 S10G24    30.00F
WASKISH        MOSUNNY   45  19  36 CALM      30.00F
BIG FORK       SUNNY     45  10  24 S10G23    30.03F
LONGVILLE      SUNNY     43  16  33 SE17G23   30.05F
GRAND RAPIDS   SUNNY     39  10  30 S16G25    30.06F
CRANE LAKE     MOSUNNY   39   3  22 S8G18     30.07F
ORR            MOSUNNY   43   3  19 SW12G21   30.01F
COOK           SUNNY     41   9  26 S12G21    30.05F
WALKER         FAIR      41  18  39 S15G26    30.02F
$$
MNZ012-019>021-037-282000-
   Northeast Minnesota

CITY           SKY/WX    TMP DP  RH WIND       PRES   REMARKS
DULUTH         SUNNY     40   9  28 S16       30.10F
ELY            SUNNY     39   3  22 S9G18     30.05F
HIBBING        SUNNY     41   5  22 SW10G21   30.06F
EVELETH        SUNNY     39   9  28 SW12G25   30.08F
DULUTH HARBOR  SUNNY     43   9  24 SW12G21   30.14F
TWO HARBORS    SUNNY     43  16  33 SW17G23   30.11F
SILVER BAY     SUNNY     39   9  28 S18G26    30.11F
GRAND MARAIS     N/A     30  20  66 SW7       30.17F WCI  23
G MARAIS ARPRT SUNNY     32   7  34 S12G18    30.09F WCI  23
$$
MNZ029>031-032-039>041-046>048-054>057-064-282000-
   West Central Minnesota

CITY           SKY/WX    TMP DP  RH WIND       PRES   REMARKS
FERGUS FALLS   PTSUNNY   43  21  42 S23G29    30.05F
WHEATON        SUNNY     43  28  56 SE20G28   30.03F
MORRIS         MOSUNNY   43  30  61 S24       30.05F
ALEXANDRIA     PTSUNNY   40  25  55 S22G28    30.07F
ELBOW LAKE     CLOUDY    42  27  56 S23G30    30.05F
WADENA         PTSUNNY   41  25  52 S17G28    30.05F
GLENWOOD       MOSUNNY   41  27  56 SE20G26   30.09F
APPLETON       SUNNY     45  27  49 S15G23    30.07F
BENSON         PTSUNNY   43  27  52 S17G25    30.08F
ORTONVILLE     SUNNY     45  27  49 S15G28    30.03F
MADISON        SUNNY     46  25  42 S17G26    30.06F
WILLMAR        FAIR      43  28  56 S9G22     30.13F
$$
MNZ033>034-036-042>043-049>051-058-059-282000-
   Central Minnesota

CITY           SKY/WX    TMP DP  RH WIND       PRES   REMARKS
ST CLOUD       SUNNY     41  16  36 S20G28    30.14F
SAUK CENTRE    MOCLDY    39  24  55 S16G26    30.10F
PAYNESVILLE    SUNNY     37  23  57 SE15G24   30.13F
AITKIN         SUNNY     43  12  28 S15G21    30.08F
PINE RIVER     SUNNY     41  21  45 S16       30.09F
BRAINERD       SUNNY     41  17  38 S17G28    30.09F
STAPLES        SUNNY     41  19  42 S17G25    30.07F
LONG PRAIRIE   FAIR      39  27  60 SE17G25   30.09F
LITTLE FALLS   SUNNY     41  18  38 S14G26    30.11F
LITCHFIELD     SUNNY     39  25  56 SE10G17   30.15F
BUFFALO        SUNNY     39  14  35 S12G18    30.19F
MAPLE LAKE     SUNNY     42  19  41 S12G21    30.17F
$$
MNZ037-044-045-052-053-282000-
   East Central Minnesota

CITY           SKY/WX    TMP DP  RH WIND       PRES   REMARKS
PRINCETON      SUNNY     45  16  31 S13G18    30.16F
MORA           SUNNY     39  14  35 S16G26    30.16F
CAMBRIDGE      SUNNY     43  21  42 S13G22    30.15F
RUSH CITY      SUNNY     40  13  32 SW8G18    30.17F
MOOSE LAKE     SUNNY     41   9  26 S12G21    30.11F
HINCKLEY       FAIR      41  12  30 S13G21    30.15F
CLOQUET        SUNNY     41   1  19 S13G21    30.11F
MCGREGOR       SUNNY     39  12  33 S9G20     30.11F
$$
MNZ071>073-080-081-089-090-097-098-282000-
   Southwest Minnesota

CITY           SKY/WX    TMP DP  RH WIND       PRES   REMARKS
MONTEVIDEO     CLOUDY    45  28  53 SW16G22   30.09F
GRANITE FALLS  CLOUDY    43  29  58 SE18G24   30.11F
CANBY          MOSUNNY   46  27  48 S15G25    30.07F
MARSHALL       PTSUNNY   43  25  49 S20G28    30.09F
REDWOOD FALLS  CLOUDY    44  27  51 S17       30.12F
OLIVIA         SUNNY     39  27  60 S17G23    30.11F
PIPESTONE      SUNNY     45  28  53 S22G28    30.05F
WINDOM         PTSUNNY   43  25  49 S15G23    30.13S
WORTHINGTON    CLOUDY    39  27  60 S18       30.12F
JACKSON        MOSUNNY   43  23  45 S16G23    30.15S
TRACY          CLOUDY    42  30  61 S18       30.10F
SLAYTON        PTSUNNY   42  28  57 SE22G28   30.09F
$$
MNZ065>067-074>077-082>085-091>093-282000-
   South Central Minnesota

CITY           SKY/WX    TMP DP  RH WIND       PRES   REMARKS
MANKATO        SUNNY     39  19  45 S16       30.18F
NEW ULM        SUNNY     43  21  42 S15G22    30.15F
ST JAMES       SUNNY     45  21  39 S15G22    30.16F
FAIRMONT       SUNNY     43  18  36 S21       30.15F
GLENCOE        SUNNY     40  25  54 SE9       30.17F
FARIBAULT      FAIR      37  19  48 S12       30.20F
OWATONNA       SUNNY     37  19  48 S15       30.20F
WASECA         SUNNY     39  23  52 SE12      30.21F
ALBERT LEA     SUNNY     43  19  39 S13       30.19F
$$
MNZ078>079-086>088-094>096-282000-
   Southeast Minnesota

CITY           SKY/WX    TMP DP  RH WIND       PRES   REMARKS
ROCHESTER      SUNNY     32  20  61 S14       30.23F WCI  22
RED WING       SUNNY     39  12  33 SW12      30.22F
STANTON        SUNNY     36  20  52 S13       30.20F
DODGE CENTER   MOSUNNY   34  25  69 SE13      30.21F WCI  25
WINONA         SUNNY     37  12  35 SW10      30.27F
AUSTIN         SUNNY     37  19  48 SE10      30.20F
PRESTON        SUNNY     33  19  55 S13       30.24F WCI  24
$$
ABBREVIATIONS USED IN REMARKS
   TC - TEMPERATURES IN CELSIUS
  WCI - WIND CHILL INDEX
   HX - HEAT INDEX
  VSB - VISIBILITY
$$


USA.gov is the U.S. government's official web portal to all federal, state and local government web resources and services.